Montrose, CO

6:52 PM MDT on August 24, 2016 (GMT -0600)
Montrose Regional

Weather History for KMTJ - November, 2014

Change the Weather History Date:

Sunday, November 9, 2014

  Actual Average Record
Temperature  
Mean Temperature 45 °F 40 °F  
Max Temperature 63 °F 54 °F 66 °F (2006)
Min Temperature 27 °F 27 °F 16 °F (1998)
Degree Days  
Heating Degree Days 20 25  
Month to date heating degree days 177 207  
Since 1 July heating degree days 599 798  
Cooling Degree Days 0 0  
Month to date cooling degree days 0 0  
Year to date cooling degree days 782 643  
Moisture  
Dew Point 23 °F    
Average Humidity 48    
Maximum Humidity 75    
Minimum Humidity 20    
Precipitation  
Precipitation 0.00 in 0.03 in 0.25 in (2002)
Month to date precipitation 0.09 0.28  
Year to date precipitation 8.53 10.12  
Sea Level Pressure  
Sea Level Pressure 30.02 in    
Wind  
Wind Speed 4 mph (SSE)    
Max Wind Speed 13 mph    
Max Gust Speed 14 mph    
Visibility 10 miles    
Events      
T = Trace of Precipitation, MM = Missing Value Source: NWS Daily Summary

Daily Weather History Graph

Daily Weather History Graph

Search for Another Location

Airport or City:

Trip Planner

Search our weather history database for the weather conditions in past years. The results will help you decide how hot, cold, wet, or windy it might be!

Date:

Astronomy

Nov. 09, 2014 Rise Set
Actual Time 6:46 AM MST 5:03 PM MST
Civil Twilight 6:18 AM MST 5:31 PM MST
Nautical Twilight 5:47 AM MST 6:03 PM MST
Astronomical Twilight 5:16 AM MST 6:34 PM MST
Moon 7:39 PM MST (11/9) 9:21 AM MST (11/9)
Length of Visible Light 11h 12m
Length of Day
10h 16m
Waning Gibbous, 91% of the Moon is Illuminated
Nov 9
Waning Gibbous
Nov 14
Last Quarter
Nov 22
New
Nov 29
First Quarter
Dec 6
Full

Hourly Weather History & Observations

Time (MST) Temp. Windchill Dew Point Humidity Pressure Visibility Wind Dir Wind Speed Gust Speed Precip Events Conditions
12:53 AM 35.1 °F 27.4 °F 23.0 °F 61% 30.22 in 10.0 mi SE 10.4 mph - N/A   Clear
1:53 AM 32.0 °F 28.7 °F 23.0 °F 69% 30.21 in 10.0 mi SE 3.5 mph - N/A   Clear
2:53 AM 30.0 °F 26.5 °F 23.0 °F 75% 30.19 in 10.0 mi South 3.5 mph - N/A   Clear
3:53 AM 28.9 °F 21.9 °F 21.0 °F 72% 30.18 in 10.0 mi ESE 6.9 mph - N/A   Clear
4:53 AM 28.0 °F 21.7 °F 21.0 °F 75% 30.19 in 10.0 mi SE 5.8 mph - N/A   Clear
5:53 AM 27.0 °F 19.5 °F 19.9 °F 75% 30.22 in 10.0 mi SE 6.9 mph - N/A   Clear
6:53 AM 28.0 °F 20.8 °F 21.0 °F 75% 30.23 in 10.0 mi South 6.9 mph - N/A   Clear
7:53 AM 34.0 °F 29.8 °F 21.0 °F 59% 30.23 in 10.0 mi SE 4.6 mph - N/A   Clear
8:53 AM 42.1 °F - 23.0 °F 47% 30.19 in 10.0 mi Calm Calm - N/A   Clear
9:53 AM 48.0 °F - 23.0 °F 37% 30.17 in 10.0 mi Calm Calm - N/A   Clear
10:53 AM 51.1 °F - 21.9 °F 32% 30.11 in 10.0 mi Calm Calm - N/A   Clear
11:53 AM 55.0 °F - 21.0 °F 27% 30.04 in 10.0 mi Calm Calm - N/A   Clear
12:53 PM 57.9 °F - 24.1 °F 27% 29.96 in 10.0 mi NW 4.6 mph - N/A   Clear
1:53 PM 61.0 °F - 23.0 °F 23% 29.91 in 10.0 mi Calm Calm - N/A   Clear
2:53 PM 63.0 °F - 21.9 °F 21% 29.87 in 10.0 mi Calm Calm - N/A   Clear
3:53 PM 59.0 °F - 25.0 °F 27% 29.87 in 10.0 mi NNW 9.2 mph - N/A   Clear
4:53 PM 53.1 °F - 26.1 °F 35% 29.87 in 10.0 mi NNW 4.6 mph - N/A   Clear
5:53 PM 48.0 °F - 26.1 °F 42% 29.88 in 10.0 mi South 5.8 mph - N/A   Clear
6:53 PM 39.9 °F 35.1 °F 26.1 °F 58% 29.91 in 10.0 mi SE 6.9 mph - N/A   Clear
7:53 PM 37.9 °F 31.5 °F 25.0 °F 60% 29.87 in 10.0 mi SSE 9.2 mph - N/A   Clear
8:53 PM 37.0 °F 31.6 °F 24.1 °F 59% 29.82 in 10.0 mi SSE 6.9 mph - N/A   Clear
9:53 PM 36.0 °F 33.3 °F 24.1 °F 62% 29.80 in 10.0 mi Variable 3.5 mph - N/A   Clear
10:53 PM 36.0 °F 32.1 °F 23.0 °F 59% 29.77 in 10.0 mi SSE 4.6 mph - N/A   Clear
11:53 PM 33.1 °F - 21.9 °F 64% 29.76 in 10.0 mi Calm Calm - N/A   Clear